Mitchell, SD

5:57 PM CDT on October 22, 2019 (GMT -0500)
Mitchell Municipal

Weather History for KMHE - June, 2019

Change the Weather History Date:

Thursday, June 6, 2019

  Actual Average Record
Temperature  
Mean Temperature 74 °F 66 °F  
Max Temperature 88 °F 77 °F 97 °F (1946)
Min Temperature 59 °F 55 °F 35 °F (1894)
Degree Days  
Heating Degree Days 0 2  
Month to date heating degree days 4 15  
Since 1 June heating degree days 4 15  
Since 1 July heating degree days 7983 7225  
Cooling Degree Days 9 3  
Month to date cooling degree days 36 17  
Year to date cooling degree days 55 57  
Since 1 June cooling degree days 36 17  
Growing Degree Days 24 (Base 50)    
Moisture  
Dew Point 59 °F    
Average Humidity 64    
Maximum Humidity 90    
Minimum Humidity 37    
Precipitation  
Precipitation 0.00 in 0.15 in 1.30 in (1965)
Month to date precipitation 0.01 0.89  
Year to date precipitation 11.85 7.62  
Snow  
Snow 0.00 in - 0.00 in ()
Month to date snowfall 0.0  
Since 1 June snowfall 0.0  
Since 1 July snowfall 67.6  
Snow Depth 0.00 in    
Sea Level Pressure  
Sea Level Pressure 29.85 in    
Wind  
Wind Speed 5 mph (South)    
Max Wind Speed 13 mph    
Max Gust Speed 18 mph    
Visibility 10 miles    
Events      
T = Trace of Precipitation, MM = Missing Value Source: NWS Daily Summary

Daily Weather History Graph

Daily Weather History Graph

Search for Another Location

Airport or City:

Astronomy

Jun. 06, 2019 Rise Set
Actual Time 5:51 AM CDT 9:10 PM CDT
Civil Twilight 5:15 AM CDT 9:46 PM CDT
Nautical Twilight 4:29 AM CDT 10:32 PM CDT
Astronomical Twilight 3:32 AM CDT 11:30 PM CDT
Moon 9:02 AM CDT (6/6) No Moon Set
Length of Visible Light 16h 30m
Length of Day
15h 19m
Waxing Crescent, 14% of the Moon is Illuminated
Jun 6
Waxing Crescent
Jun 10
First Quarter
Jun 17
Full
Jun 25
Last Quarter
Jul 2
New

Hourly Weather History & Observations

Time (CDT) Temp. Heat Index Dew Point Humidity Pressure Visibility Wind Dir Wind Speed Gust Speed Precip Events Conditions
12:53 AM 64.9 °F - 57.9 °F 78% 29.86 in 10.0 mi WSW 3.5 mph - N/A   Clear
1:53 AM 63.0 °F - 57.0 °F 81% 29.86 in 10.0 mi Calm Calm - N/A   Clear
2:53 AM 64.0 °F - 57.9 °F 80% 29.85 in 10.0 mi Calm Calm - N/A   Clear
3:53 AM 63.0 °F - 55.9 °F 78% 29.85 in 10.0 mi Calm Calm - N/A   Clear
4:53 AM 62.1 °F - 57.9 °F 86% 29.86 in 10.0 mi Calm Calm - N/A   Clear
5:53 AM 61.0 °F - 57.0 °F 87% 29.87 in 10.0 mi Calm Calm - N/A   Clear
6:53 AM 62.1 °F - 59.0 °F 90% 29.88 in 9.0 mi Calm Calm - N/A   Clear
7:53 AM 66.9 °F - 59.0 °F 76% 29.89 in 10.0 mi SW 3.5 mph - N/A   Clear
8:53 AM 72.0 °F - 61.0 °F 68% 29.89 in 10.0 mi South 4.6 mph - N/A   Clear
9:53 AM 78.1 °F - 62.1 °F 58% 29.88 in 10.0 mi South 5.8 mph - N/A   Clear
10:53 AM 80.1 °F 81.2 °F 62.1 °F 54% 29.88 in 10.0 mi South 8.1 mph - N/A   Clear
11:53 AM 82.0 °F 82.4 °F 60.1 °F 47% 29.87 in 10.0 mi SSE 9.2 mph - N/A   Clear
12:53 PM 84.9 °F 85.0 °F 61.0 °F 44% 29.86 in 10.0 mi SSE 5.8 mph - N/A   Clear
1:53 PM 86.0 °F 85.0 °F 57.9 °F 38% 29.86 in 10.0 mi South 8.1 mph - N/A   Clear
2:53 PM 86.0 °F 85.0 °F 57.9 °F 38% 29.84 in 10.0 mi SSE 4.6 mph - N/A   Clear
3:53 PM 87.1 °F 86.5 °F 59.0 °F 39% 29.83 in 10.0 mi South 6.9 mph - N/A   Clear
4:53 PM 87.1 °F 86.7 °F 60.1 °F 40% 29.82 in 10.0 mi South 3.5 mph - N/A   Clear
5:53 PM 87.1 °F 87.0 °F 61.0 °F 41% 29.82 in 10.0 mi SSE 5.8 mph - N/A   Clear
6:53 PM 84.9 °F 85.0 °F 61.0 °F 44% 29.81 in 10.0 mi SE 8.1 mph - N/A   Clear
7:53 PM 82.0 °F 83.1 °F 63.0 °F 52% 29.81 in 10.0 mi SE 5.8 mph - N/A   Clear
8:53 PM 77.0 °F - 62.1 °F 60% 29.81 in 10.0 mi SSE 5.8 mph - N/A   Clear
9:53 PM 73.9 °F - 60.1 °F 62% 29.82 in 10.0 mi South 8.1 mph - N/A   Clear
10:53 PM 73.9 °F - 59.0 °F 59% 29.81 in 10.0 mi SSE 6.9 mph - N/A   Clear
11:53 PM 73.0 °F - 57.9 °F 59% 29.81 in 10.0 mi SSE 3.5 mph - N/A   Clear